�������l�o���
Date,Time,MP-1(��Sv/h),MP-2(��Sv/h),MP-3(��Sv/h),MP-4(��Sv/h),MP-5(��Sv/h),MP-6(��Sv/h),MP-7(��Sv/h),MP-8(��Sv/h),����,����(m/s),���J
2022/01/11,00:00,0.583,0.884,0.558,1.092,0.756,0.351,0.614,0.584,�k��,3.0,��
2022/01/11,00:10,0.584,0.885,0.558,1.092,0.754,0.352,0.614,0.582,�k��,2.8,��
2022/01/11,00:20,0.585,0.885,0.557,1.089,0.757,0.352,0.615,0.582,���k��,2.3,��
2022/01/11,00:30,0.583,0.886,0.558,1.090,0.756,0.353,0.615,0.584,�k��,2.8,��
2022/01/11,00:40,0.585,0.887,0.559,1.090,0.753,0.353,0.614,0.583,�k��,3.1,��
2022/01/11,00:50,0.585,0.885,0.559,1.093,0.756,0.352,0.614,0.583,�k��,2.8,��
2022/01/11,01:00,0.585,0.885,0.558,1.091,0.753,0.352,0.614,0.584,�k��,2.5,��
2022/01/11,01:10,0.585,0.886,0.558,1.092,0.754,0.352,0.616,0.584,���k��,2.0,��
2022/01/11,01:20,0.583,0.888,0.558,1.088,0.755,0.353,0.613,0.584,���k��,2.0,��
2022/01/11,01:30,0.584,0.885,0.558,1.091,0.756,0.351,0.614,0.584,�k��,2.5,��
2022/01/11,01:40,0.585,0.886,0.559,1.090,0.754,0.352,0.615,0.584,�k��,1.9,��
2022/01/11,01:50,0.584,0.885,0.560,1.091,0.756,0.352,0.615,0.584,���k��,1.4,��
2022/01/11,02:00,0.586,0.886,0.559,1.093,0.755,0.354,0.615,0.585,��,1.4,��
2022/01/11,02:10,0.585,0.885,0.559,1.089,0.757,0.353,0.614,0.583,���k��,1.2,��
2022/01/11,02:20,0.586,0.887,0.559,1.088,0.753,0.352,0.614,0.584,���k��,0.9,��
2022/01/11,02:30,0.584,0.888,0.558,1.087,0.755,0.352,0.614,0.584,���k��,1.2,��
2022/01/11,02:40,0.585,0.887,0.558,1.090,0.755,0.354,0.615,0.583,���쐼,1.1,��
2022/01/11,02:50,0.585,0.887,0.558,1.091,0.754,0.352,0.615,0.585,�쐼,1.2,��
2022/01/11,03:00,0.586,0.886,0.558,1.090,0.755,0.353,0.613,0.583,�쐼,1.5,��
2022/01/11,03:10,0.585,0.887,0.559,1.090,0.756,0.354,0.616,0.585,�쐼,1.4,��
2022/01/11,03:20,0.584,0.887,0.560,1.090,0.754,0.352,0.616,0.584,��쐼,1.2,��
2022/01/11,03:30,0.586,0.888,0.560,1.089,0.756,0.352,0.617,0.584,�쐼,0.8,��
2022/01/11,03:40,0.584,0.885,0.559,1.089,0.754,0.354,0.616,0.585,�쐼,0.6,��
2022/01/11,03:50,0.585,0.887,0.558,1.091,0.755,0.353,0.617,0.584,-,CALM,��
2022/01/11,04:00,0.584,0.886,0.559,1.089,0.755,0.352,0.615,0.583,-,CALM,��
2022/01/11,04:10,0.586,0.886,0.559,1.089,0.754,0.353,0.617,0.582,-,CALM,��
2022/01/11,04:20,0.584,0.887,0.558,1.091,0.753,0.352,0.615,0.582,-,CALM,��
2022/01/11,04:30,0.586,0.886,0.561,1.088,0.755,0.353,0.615,0.583,-,CALM,��
2022/01/11,04:40,0.585,0.888,0.560,1.090,0.752,0.353,0.615,0.584,-,CALM,��
2022/01/11,04:50,0.585,0.888,0.559,1.091,0.754,0.353,0.616,0.583,-,CALM,��
2022/01/11,05:00,0.586,0.887,0.559,1.090,0.755,0.353,0.615,0.584,-,CALM,��
2022/01/11,05:10,0.586,0.887,0.560,1.090,0.755,0.353,0.615,0.584,-,CALM,��
2022/01/11,05:20,0.586,0.885,0.559,1.091,0.755,0.353,0.616,0.585,���쐼,0.8,��
2022/01/11,05:30,0.585,0.885,0.559,1.091,0.755,0.353,0.616,0.584,-,CALM,��
2022/01/11,05:40,0.588,0.887,0.560,1.090,0.755,0.352,0.615,0.584,-,CALM,��
2022/01/11,05:50,0.586,0.887,0.560,1.091,0.755,0.353,0.615,0.583,�k�k��,1.2,��
2022/01/11,06:00,0.587,0.886,0.560,1.089,0.754,0.353,0.616,0.582,�k�k��,1.7,��
2022/01/11,06:10,0.585,0.887,0.559,1.091,0.755,0.353,0.616,0.583,�k�k��,2.0,��
2022/01/11,06:20,0.586,0.887,0.560,1.090,0.754,0.352,0.614,0.584,�k�k��,2.3,��
2022/01/11,06:30,0.586,0.887,0.560,1.092,0.756,0.354,0.616,0.584,�k�k��,3.8,��
2022/01/11,06:40,0.586,0.889,0.561,1.091,0.756,0.355,0.616,0.583,�k�k��,4.3,��
2022/01/11,06:50,0.587,0.886,0.562,1.092,0.756,0.354,0.615,0.584,�k�k��,4.1,��
2022/01/11,07:00,0.588,0.886,0.562,1.090,0.758,0.354,0.618,0.585,�k�k��,5.2,��
2022/01/11,07:10,0.588,0.886,0.561,1.090,0.757,0.355,0.616,0.584,�k�k��,5.3,��
2022/01/11,07:20,0.587,0.888,0.560,1.088,0.754,0.353,0.615,0.585,�k�k��,5.6,��
2022/01/11,07:30,0.587,0.887,0.560,1.092,0.756,0.354,0.617,0.585,�k�k��,3.9,�L
2022/01/11,07:40,0.586,0.888,0.561,1.092,0.756,0.353,0.617,0.585,�k�k��,5.5,�L
2022/01/11,07:50,0.588,0.889,0.562,1.092,0.755,0.354,0.619,0.585,�k�k��,5.2,�L
2022/01/11,08:00,0.589,0.886,0.561,1.092,0.756,0.354,0.617,0.585,�k�k��,6.3,�L
2022/01/11,08:10,0.591,0.886,0.563,1.092,0.755,0.355,0.616,0.584,�k�k��,6.9,�L
2022/01/11,08:20,0.587,0.887,0.562,1.090,0.757,0.356,0.617,0.584,�k�k��,6.8,�L
2022/01/11,08:30,0.588,0.883,0.561,1.091,0.753,0.355,0.617,0.585,�k�k��,7.0,�L
2022/01/11,08:40,0.588,0.883,0.560,1.090,0.752,0.353,0.618,0.585,�k�k��,6.7,�L
2022/01/11,08:50,0.587,0.881,0.560,1.090,0.753,0.355,0.618,0.583,�k�k��,7.8,�L
2022/01/11,09:00,0.586,0.881,0.561,1.090,0.752,0.356,0.616,0.584,�k�k��,6.7,�L
2022/01/11,09:10,0.586,0.880,0.561,1.088,0.750,0.355,0.617,0.585,�k��,6.3,�L
2022/01/11,09:20,0.586,0.879,0.560,1.087,0.749,0.356,0.616,0.584,�k��,6.7,�L
2022/01/11,09:30,0.583,0.873,0.559,1.087,0.748,0.355,0.615,0.582,�k��,6.2,�L
2022/01/11,09:40,0.582,0.872,0.556,1.083,0.748,0.353,0.614,0.582,�k��,6.0,�L
2022/01/11,09:50,0.582,0.870,0.554,1.082,0.741,0.353,0.613,0.583,�k��,6.5,�L
2022/01/11,10:00,0.581,0.867,0.556,1.077,0.739,0.355,0.612,0.581,�k��,6.8,�L
2022/01/11,10:10,0.580,0.868,0.554,1.078,0.742,0.355,0.612,0.580,�k��,7.5,�L
2022/01/11,10:20,0.579,0.865,0.553,1.077,0.739,0.355,0.611,0.582,�k��,6.8,�L
2022/01/11,10:30,0.579,0.862,0.554,1.074,0.738,0.355,0.612,0.580,�k��,6.8,�L
2022/01/11,10:40,0.579,0.861,0.553,1.071,0.735,0.356,0.611,0.580,�k��,6.2,�L
2022/01/11,10:50,0.577,0.858,0.552,1.069,0.733,0.356,0.611,0.578,�k�k��,6.3,�L
2022/01/11,11:00,0.578,0.857,0.553,1.068,0.732,0.355,0.609,0.578,�k�k��,6.5,�L
2022/01/11,11:10,0.577,0.855,0.551,1.064,0.731,0.355,0.612,0.579,�k�k��,7.5,�L
2022/01/11,11:20,0.575,0.856,0.552,1.060,0.730,0.356,0.609,0.578,�k�k��,7.7,�L
2022/01/11,11:30,0.574,0.852,0.553,1.057,0.730,0.356,0.607,0.577,�k�k��,7.8,�L
2022/01/11,11:40,0.572,0.849,0.551,1.054,0.728,0.355,0.609,0.579,�k�k��,8.4,�L
2022/01/11,11:50,0.572,0.848,0.549,1.053,0.728,0.356,0.608,0.577,�k�k��,8.0,�L
2022/01/11,12:00,0.572,0.847,0.549,1.049,0.726,0.356,0.607,0.577,�k�k��,8.1,�L
2022/01/11,12:10,0.571,0.841,0.548,1.045,0.724,0.354,0.606,0.575,�k�k��,8.2,�L
2022/01/11,12:20,0.569,0.843,0.548,1.044,0.721,0.353,0.603,0.575,�k�k��,7.7,�L
2022/01/11,12:30,0.571,0.846,0.550,1.044,0.721,0.355,0.604,0.574,�k�k��,8.6,�L
2022/01/11,12:40,0.572,0.844,0.549,1.043,0.722,0.355,0.606,0.575,�k�k��,7.6,�L
2022/01/11,12:50,0.571,0.846,0.549,1.042,0.724,0.354,0.607,0.575,�k�k��,6.9,�L
2022/01/11,13:00,0.572,0.844,0.547,1.040,0.724,0.353,0.605,0.575,�k�k��,5.3,�L
2022/01/11,13:10,0.570,0.842,0.546,1.041,0.724,0.352,0.605,0.575,�k�k��,5.3,�L
2022/01/11,13:20,0.568,0.840,0.548,1.038,0.723,0.352,0.605,0.575,�k�k��,6.8,�L
2022/01/11,13:30,0.567,0.843,0.545,1.040,0.724,0.353,0.605,0.575,�k�k��,6.7,��
2022/01/11,13:40,0.566,0.844,0.545,1.041,0.723,0.350,0.604,0.575,�k��,5.9,��
2022/01/11,13:50,0.567,0.844,0.545,1.039,0.723,0.351,0.604,0.574,�k�k��,4.9,��
2022/01/11,14:00,0.566,0.841,0.544,1.040,0.724,0.350,0.605,0.575,�k��,5.7,��
2022/01/11,14:10,0.567,0.843,0.544,1.039,0.722,0.349,0.605,0.575,�k��,5.7,�L
2022/01/11,14:20,0.567,0.842,0.542,1.041,0.723,0.350,0.604,0.575,�k�k��,5.7,�L
2022/01/11,14:30,0.567,0.842,0.541,1.041,0.721,0.351,0.604,0.572,�k��,6.9,�L
2022/01/11,14:40,0.565,0.838,0.542,1.038,0.720,0.350,0.604,0.574,�k�k��,7.0,�L
2022/01/11,14:50,0.567,0.838,0.545,1.034,0.719,0.350,0.605,0.575,�k�k��,6.2,�L
2022/01/11,15:00,0.566,0.840,0.544,1.037,0.722,0.349,0.604,0.575,�k�k��,5.2,�L
2022/01/11,15:10,0.567,0.837,0.545,1.034,0.720,0.351,0.603,0.574,�k�k��,5.9,�L
2022/01/11,15:20,0.567,0.836,0.543,1.033,0.718,0.353,0.604,0.574,�k�k��,6.5,�L
2022/01/11,15:30,0.566,0.835,0.544,1.032,0.720,0.352,0.603,0.574,�k��,6.3,�L
2022/01/11,15:40,0.569,0.838,0.543,1.032,0.719,0.352,0.604,0.573,�k�k��,6.9,�L
2022/01/11,15:50,0.569,0.837,0.544,1.032,0.718,0.352,0.602,0.574,�k�k��,6.7,�L
2022/01/11,16:00,0.569,0.840,0.544,1.032,0.717,0.353,0.601,0.573,�k�k��,6.1,�L
2022/01/11,16:10,0.566,0.836,0.544,1.032,0.717,0.352,0.602,0.573,�k�k��,6.0,�L
2022/01/11,16:20,0.567,0.836,0.543,1.030,0.718,0.353,0.601,0.574,�k,5.0,�L
2022/01/11,16:30,0.567,0.835,0.545,1.030,0.718,0.352,0.601,0.573,�k,4.4,�L
2022/01/11,16:40,0.566,0.837,0.545,1.030,0.718,0.352,0.603,0.572,�k,4.8,�L
2022/01/11,16:50,0.566,0.840,0.543,1.030,0.720,0.353,0.603,0.573,�k,3.0,�L
2022/01/11,17:00,0.566,0.837,0.545,1.032,0.719,0.352,0.603,0.574,�k,2.8,�L
2022/01/11,17:10,0.567,0.839,0.544,1.030,0.717,0.351,0.603,0.572,�k�k��,2.6,�L
2022/01/11,17:20,0.569,0.839,0.545,1.032,0.718,0.353,0.603,0.573,�k�k��,2.8,�L
2022/01/11,17:30,0.568,0.840,0.543,1.032,0.718,0.351,0.604,0.573,�k,2.6,�L
2022/01/11,17:40,0.568,0.840,0.546,1.031,0.720,0.351,0.601,0.573,�k�k��,2.0,�L
2022/01/11,17:50,0.569,0.841,0.542,1.030,0.718,0.350,0.603,0.573,�k,1.2,�L
2022/01/11,18:00,0.568,0.837,0.543,1.030,0.718,0.351,0.601,0.573,�k�k��,2.2,�L
2022/01/11,18:10,0.568,0.840,0.543,1.031,0.718,0.352,0.602,0.573,�k,2.8,�L
2022/01/11,18:20,0.567,0.840,0.544,1.031,0.720,0.354,0.603,0.574,�k�k��,3.0,�L
2022/01/11,18:30,0.570,0.840,0.545,1.031,0.718,0.353,0.602,0.573,�k��,3.3,�L
2022/01/11,18:40,0.569,0.842,0.546,1.032,0.718,0.353,0.603,0.573,�k��,3.0,�L
2022/01/11,18:50,0.570,0.840,0.547,1.031,0.717,0.355,0.602,0.573,���쐼,3.2,�L
2022/01/11,19:00,0.571,0.840,0.545,1.031,0.720,0.356,0.601,0.573,���k��,3.3,�L
2022/01/11,19:10,0.571,0.840,0.548,1.031,0.720,0.356,0.602,0.572,���k��,4.4,�L
2022/01/11,19:20,0.570,0.840,0.549,1.032,0.720,0.357,0.602,0.573,���k��,4.8,�L
2022/01/11,19:30,0.573,0.841,0.548,1.031,0.719,0.356,0.602,0.574,���k��,2.6,��
2022/01/11,19:40,0.572,0.841,0.547,1.030,0.718,0.354,0.602,0.573,�k��,3.6,��
2022/01/11,19:50,0.571,0.838,0.545,1.031,0.718,0.353,0.601,0.572,���k��,6.3,��
2022/01/11,20:00,0.570,0.839,0.544,1.028,0.717,0.352,0.600,0.572,���k��,8.2,��
2022/01/11,20:10,0.569,0.839,0.543,1.031,0.717,0.351,0.603,0.571,���k��,9.6,��
2022/01/11,20:20,0.569,0.838,0.542,1.025,0.718,0.350,0.601,0.572,���k��,8.5,��
2022/01/11,20:30,0.567,0.838,0.542,1.030,0.716,0.348,0.601,0.571,�k��,8.3,��
2022/01/11,20:40,0.564,0.837,0.540,1.027,0.716,0.350,0.600,0.569,�k��,8.7,��
2022/01/11,20:50,0.564,0.838,0.539,1.030,0.715,0.347,0.601,0.572,���k��,6.4,�L
2022/01/11,21:00,0.563,0.838,0.540,1.028,0.715,0.349,0.600,0.570,�k��,7.4,�L
2022/01/11,21:10,0.565,0.837,0.539,1.028,0.716,0.348,0.600,0.570,�k��,9.6,��
2022/01/11,21:20,0.566,0.837,0.540,1.029,0.717,0.347,0.600,0.571,�k��,7.8,��
2022/01/11,21:30,0.563,0.838,0.540,1.028,0.716,0.347,0.601,0.572,�k��,7.0,��
2022/01/11,21:40,0.565,0.837,0.539,1.027,0.717,0.348,0.603,0.571,�k��,6.8,��
2022/01/11,21:50,0.564,0.837,0.540,1.029,0.716,0.346,0.601,0.573,�k��,8.0,��
2022/01/11,22:00,0.564,0.837,0.539,1.031,0.717,0.346,0.601,0.571,�k��,8.8,��
2022/01/11,22:10,0.565,0.839,0.541,1.032,0.718,0.347,0.601,0.570,�k��,9.0,��
2022/01/11,22:20,0.565,0.838,0.539,1.032,0.717,0.347,0.601,0.572,�k��,6.8,��
2022/01/11,22:30,0.567,0.840,0.541,1.032,0.718,0.346,0.602,0.570,�k��,7.0,��
2022/01/11,22:40,0.564,0.840,0.541,1.032,0.716,0.347,0.605,0.571,�k��,8.0,��
2022/01/11,22:50,0.566,0.841,0.542,1.033,0.717,0.348,0.602,0.572,�k��,7.3,��
2022/01/11,23:00,0.565,0.839,0.542,1.031,0.718,0.347,0.603,0.572,���k��,6.0,��
2022/01/11,23:10,0.566,0.841,0.541,1.031,0.718,0.347,0.603,0.572,���k��,3.0,��
2022/01/11,23:20,0.566,0.841,0.539,1.034,0.719,0.347,0.605,0.572,�k��,8.7,��
2022/01/11,23:30,0.565,0.839,0.540,1.033,0.718,0.348,0.603,0.571,�k��,6.4,��
2022/01/11,23:40,0.567,0.840,0.541,1.032,0.720,0.346,0.604,0.573,�k��,3.7,��
2022/01/11,23:50,0.566,0.842,0.542,1.032,0.720,0.347,0.603,0.571,���k��,2.3,��
